QPF
0.00 0.00 0.01 0.00 0.00 0.00 0.01 0.02 0.03 0.03 0.02 0.02 0.02 0.01 0.01 0.02 0.02 0.02 0.01 0.02 0.02 0.02 0.01 0.01 0.02 0.03 0.04 0.04 0.04 0.03 0.03 0.03 0.04 0.04 0.04 0.04 0.05 0.05
0.00 0.01 0.00 0.00 0.00 0.00 0.01 0.01 0.01 0.02 0.02 0.02 0.02 0.03 0.03 0.03 0.02 0.01 0.01 0.01 0.01 0.01 0.01 0.01 0.02 0.03 0.02 0.03 0.03 0.03 0.02 0.02 0.02 0.03 0.03 0.03 0.04 0.04
0.00 0.00 0.00 0.00 0.00 0.00 0.01 0.01 0.01 0.01 0.02 0.02 0.02 0.04 0.03 0.01 0.01 0.01 0.01 0.02 0.02 0.01 0.01 0.02 0.03 0.03 0.02 0.02 0.02 0.02 0.02 0.02 0.02 0.02 0.02 0.02 0.03 0.03
0.00 0.00 0.00 0.00 0.00 0.00 0.00 0.01 0.01 0.01 0.01 0.01 0.01 0.02 0.01 0.00 0.01 0.01 0.01 0.01 0.01 0.01 0.01 0.03 0.03 0.04 0.03 0.03 0.02 0.02 0.02 0.02 0.01 0.02 0.02 0.02 0.01 0.01
0.00 0.00 0.00 0.00 0.00 0.00 0.00 0.00 0.00 0.00 0.01 0.01 0.01 0.01 0.00 0.01 0.03 0.04 0.02 0.00 0.01 0.03 0.04 0.03 0.04 0.04 0.03 0.04 0.03 0.03 0.03 0.01 0.01 0.01 0.01 0.02 0.02 0.02
0.00 0.00 0.00 0.00 0.00 0.00 0.00 0.00 0.01 0.01 0.00 0.00 0.01 0.00 0.01 0.01 0.02 0.03 0.02 0.02 0.02 0.02 0.03 0.02 0.01 0.02 0.03 0.03 0.03 0.02 0.02 0.01 0.01 0.01 0.01 0.01 0.02 0.02
0.00 0.00 0.00 0.00 0.00 0.00 0.00 0.00 0.00 0.00 0.00 0.00 0.01 0.01 0.01 0.02 0.02 0.03 0.03 0.03 0.02 0.01 0.01 0.01 0.00 0.01 0.02 0.02 0.02 0.02 0.01 0.01 0.00 0.01 0.01 0.02 0.02 0.02
0.00 0.00 0.00 0.00 0.00 0.00 0.00 0.00 0.00 0.00 0.00 0.00 0.01 0.00 0.01 0.01 0.01 0.01 0.01 0.01 0.01 0.01 0.01 0.00 0.01 0.01 0.01 0.02 0.02 0.01 0.01 0.00 0.00 0.00 0.01 0.01 0.02 0.01
0.00 0.00 0.00 0.00 0.00 0.00 0.00 0.00 0.00 0.00 0.00 0.00 0.00 0.00 0.01 0.01 0.01 0.01 0.01 0.01 0.01 0.01 0.00 0.00 0.00 0.01 0.01 0.01 0.01 0.00 0.00 0.00 0.00 0.00 0.00 0.01 0.01 0.01
0.00 0.00 0.00 0.00 0.00 0.00 0.00 0.00 0.00 0.00 0.00 0.00 0.00 0.00 0.00 0.00 0.01 0.00 0.00 0.00 0.00 0.00 0.00 0.00 0.00 0.00 0.00 0.01 0.01 0.00 0.00 0.00 0.00 0.01 0.01 0.00 0.01 0.01
0.00 0.00 0.00 0.00 0.00 0.00 0.00 0.00 0.00 0.00 0.00 0.00 0.00 0.00 0.00 0.00 0.00 0.00 0.00 0.00 0.00 0.00 0.00 0.00 0.00 0.00 0.00 0.01 0.01 0.01 0.01 0.00 0.01 0.01 0.01 0.01 0.01 0.01
0.00 0.00 0.00 0.00 0.00 0.00 0.00 0.00 0.00 0.00 0.00 0.00 0.00 0.00 0.00 0.00 0.00 0.00 0.00 0.00 0.00 0.00 0.00 0.00 0.00 0.00 0.00 0.01 0.01 0.01 0.01 0.01 0.01 0.01 0.02 0.02 0.01 0.01
0.00 0.00 0.00 0.00 0.00 0.00 0.00 0.00 0.00 0.00 0.00 0.00 0.00 0.00 0.00 0.00 0.00 0.00 0.00 0.00 0.00 0.00 0.00 0.00 0.00 0.01 0.01 0.03 0.03 0.02 0.01 0.01 0.01 0.01 0.01 0.01 0.01 0.01
0.00 0.00 0.00 0.00 0.00 0.00 0.00 0.00 0.00 0.00 0.00 0.00 0.00 0.00 0.01 0.00 0.00 0.00 0.00 0.00 0.00 0.01 0.00 0.01 0.01 0.03 0.03 0.02 0.01 0.02 0.02 0.01 0.00 0.01 0.01 0.00 0.00 0.00
0.00 0.00 0.00 0.00 0.00 0.00 0.00 0.00 0.00 0.00 0.00 0.00 0.00 0.00 0.01 0.00 0.00 0.01 0.01 0.01 0.01 0.00 0.00 0.00 0.01 0.02 0.01 0.01 0.01 0.01 0.01 0.00 0.00 0.00 0.00 0.00 0.00 0.00
0.00 0.00 0.00 0.00 0.00 0.00 0.00 0.00 0.00 0.00 0.00 0.00 0.00 0.01 0.01 0.00 0.01 0.01 0.01 0.01 0.01 0.00 0.00 0.00 0.00 0.00 0.00 0.00 0.00 0.00 0.00 0.00 0.00 0.00 0.00 0.00 0.00 0.00
0.00 0.00 0.00 0.00 0.00 0.00 0.00 0.00 0.00 0.00 0.00 0.00 0.00 0.00 0.00 0.00 0.01 0.01 0.01 0.01 0.01 0.00 0.00 0.00 0.00 0.00 0.00 0.00 0.00 0.00 0.00 0.00 0.00 0.00 0.00 0.00 0.00 0.00
0.00 0.00 0.00 0.00 0.00 0.00 0.01 0.00 0.00 0.00 0.00 0.00 0.00 0.00 0.00 0.00 0.00 0.00 0.00 0.00 0.00 0.00 0.00 0.00 0.00 0.00 0.00 0.00 0.00 0.00 0.00 0.00 0.00 0.00 0.00 0.00 0.00 0.00
0.00 0.00 0.00 0.00 0.00 0.00 0.00 0.00 0.00 0.00 0.00 0.00 0.00 0.00 0.00 0.00 0.00 0.00 0.00 0.00 0.00 0.00 0.00 0.00 0.00 0.00 0.00 0.00 0.00 0.00 0.00 0.00 0.00 0.00 0.00 0.00 0.00 0.00
0.00 0.00 0.00 0.00 0.00 0.00 0.00 0.00 0.00 0.00 0.00 0.00 0.00 0.00 0.00 0.00 0.00 0.00 0.00 0.00 0.00 0.00 0.00 0.00 0.00 0.00 0.00 0.00 0.00 0.00 0.00 0.00 0.00 0.00 0.00 0.00 0.00 0.00
0.00 0.00 0.00 0.00 0.00 0.00 0.00 0.00 0.00 0.00 0.00 0.00 0.00 0.00 0.00 0.00 0.00 0.00 0.00 0.00 0.00 0.00 0.00 0.00 0.00 0.00 0.00 0.00 0.00 0.00 0.00 0.00 0.00 0.00 0.00 0.00 0.00 0.00
0.00 0.00 0.00 0.00 0.00 0.00 0.00 0.00 0.00 0.00 0.00 0.00 0.00 0.00 0.00 0.00 0.00 0.00 0.00 0.00 0.00 0.00 0.00 0.00 0.00 0.00 0.00 0.00 0.00 0.00 0.00 0.00 0.00 0.00 0.00 0.00 0.00 0.00
0.00 0.00 0.00 0.00 0.00 0.00 0.00 0.00 0.00 0.00 0.00 0.00 0.00 0.00 0.00 0.00 0.00 0.00 0.00 0.00 0.00 0.00 0.00 0.00 0.00 0.00 0.00 0.00 0.00 0.00 0.00 0.00 0.00 0.00 0.00 0.00 0.00 0.00
MSLP
1018.87 1018.81 1018.82 1018.92 1019.09 1019.31 1019.56 1019.81 1020.05 1020.26 1020.42 1020.55 1020.64 1020.70 1020.75 1020.79 1020.83 1020.88 1020.92 1020.97 1021.01 1021.03 1021.03 1021.00 1020.94 1020.84 1020.73 1020.61 1020.49 1020.37 1020.28 1020.21 1020.18 1020.17 1020.18 1020.21 1020.26 1020.31
1019.34 1019.24 1019.21 1019.25 1019.35 1019.50 1019.68 1019.88 1020.07 1020.25 1020.41 1020.55 1020.67 1020.78 1020.88 1020.99 1021.10 1021.22 1021.34 1021.45 1021.56 1021.63 1021.68 1021.69 1021.66 1021.60 1021.52 1021.41 1021.29 1021.18 1021.07 1020.97 1020.90 1020.84 1020.79 1020.75 1020.73 1020.71
1019.86 1019.74 1019.68 1019.67 1019.72 1019.81 1019.93 1020.06 1020.20 1020.34 1020.48 1020.60 1020.73 1020.86 1020.99 1021.14 1021.29 1021.45 1021.62 1021.78 1021.92 1022.05 1022.14 1022.19 1022.22 1022.20 1022.16 1022.10 1022.02 1021.93 1021.83 1021.73 1021.63 1021.53 1021.43 1021.33 1021.23 1021.13
1020.38 1020.27 1020.20 1020.17 1020.18 1020.22 1020.29 1020.38 1020.47 1020.57 1020.67 1020.77 1020.88 1021.01 1021.14 1021.29 1021.45 1021.62 1021.80 1021.97 1022.13 1022.27 1022.38 1022.48 1022.54 1022.59 1022.60 1022.59 1022.57 1022.52 1022.45 1022.37 1022.27 1022.15 1022.02 1021.87 1021.71 1021.55
1020.87 1020.79 1020.74 1020.70 1020.70 1020.72 1020.76 1020.81 1020.87 1020.93 1021.00 1021.07 1021.16 1021.25 1021.37 1021.49 1021.63 1021.77 1021.91 1022.06 1022.20 1022.33 1022.44 1022.55 1022.65 1022.73 1022.80 1022.85 1022.89 1022.90 1022.88 1022.83 1022.75 1022.64 1022.49 1022.32 1022.13 1021.93
1021.30 1021.25 1021.23 1021.21 1021.22 1021.24 1021.27 1021.30 1021.33 1021.37 1021.41 1021.46 1021.51 1021.58 1021.65 1021.74 1021.82 1021.91 1022.01 1022.10 1022.19 1022.28 1022.37 1022.47 1022.57 1022.68 1022.78 1022.89 1022.98 1023.05 1023.08 1023.08 1023.04 1022.95 1022.82 1022.65 1022.46 1022.26
1021.63 1021.62 1021.62 1021.64 1021.67 1021.71 1021.74 1021.77 1021.79 1021.82 1021.84 1021.86 1021.89 1021.92 1021.96 1022.00 1022.03 1022.07 1022.10 1022.12 1022.15 1022.19 1022.24 1022.30 1022.39 1022.50 1022.62 1022.76 1022.89 1023.00 1023.09 1023.14 1023.14 1023.08 1022.98 1022.84 1022.67 1022.48
1021.83 1021.86 1021.90 1021.96 1022.01 1022.07 1022.11 1022.14 1022.17 1022.18 1022.19 1022.20 1022.21 1022.22 1022.23 1022.23 1022.22 1022.21 1022.19 1022.16 1022.13 1022.11 1022.11 1022.13 1022.19 1022.28 1022.40 1022.55 1022.70 1022.84 1022.96 1023.04 1023.08 1023.06 1023.00 1022.89 1022.74 1022.58
1021.92 1021.98 1022.05 1022.14 1022.22 1022.29 1022.34 1022.38 1022.40 1022.41 1022.41 1022.41 1022.41 1022.41 1022.40 1022.38 1022.36 1022.32 1022.26 1022.20 1022.13 1022.07 1022.02 1022.01 1022.04 1022.10 1022.21 1022.34 1022.49 1022.64 1022.77 1022.86 1022.92 1022.92 1022.88 1022.79 1022.67 1022.54
1021.91 1022.00 1022.10 1022.20 1022.30 1022.38 1022.44 1022.47 1022.49 1022.48 1022.47 1022.46 1022.46 1022.45 1022.44 1022.43 1022.41 1022.36 1022.31 1022.23 1022.15 1022.07 1022.00 1021.97 1021.96 1022.00 1022.08 1022.18 1022.31 1022.44 1022.55 1022.64 1022.69 1022.70 1022.66 1022.58 1022.47 1022.34
1021.85 1021.96 1022.09 1022.21 1022.31 1022.39 1022.44 1022.46 1022.46 1022.44 1022.41 1022.39 1022.38 1022.37 1022.37 1022.38 1022.37 1022.35 1022.31 1022.25 1022.18 1022.11 1022.04 1021.99 1021.97 1021.98 1022.03 1022.10 1022.19 1022.28 1022.36 1022.42 1022.44 1022.42 1022.36 1022.27 1022.16 1022.02
1021.78 1021.93 1022.07 1022.21 1022.32 1022.39 1022.42 1022.42 1022.39 1022.34 1022.30 1022.26 1022.23 1022.23 1022.24 1022.26 1022.28 1022.28 1022.28 1022.25 1022.21 1022.16 1022.10 1022.06 1022.03 1022.02 1022.03 1022.07 1022.12 1022.16 1022.20 1022.21 1022.18 1022.13 1022.03 1021.91 1021.77 1021.62
1021.76 1021.93 1022.10 1022.25 1022.35 1022.41 1022.43 1022.40 1022.34 1022.27 1022.19 1022.13 1022.09 1022.08 1022.09 1022.13 1022.16 1022.20 1022.23 1022.23 1022.22 1022.20 1022.16 1022.12 1022.09 1022.07 1022.06 1022.06 1022.06 1022.06 1022.04 1022.00 1021.92 1021.82 1021.69 1021.53 1021.36 1021.18
1021.78 1021.99 1022.18 1022.33 1022.44 1022.49 1022.49 1022.44 1022.35 1022.25 1022.15 1022.07 1022.01 1021.99 1021.99 1022.02 1022.07 1022.12 1022.17 1022.20 1022.21 1022.21 1022.19 1022.16 1022.12 1022.09 1022.06 1022.03 1021.99 1021.94 1021.87 1021.78 1021.66 1021.52 1021.35 1021.16 1020.96 1020.77
1021.81 1022.06 1022.27 1022.43 1022.54 1022.59 1022.57 1022.51 1022.41 1022.29 1022.17 1022.07 1021.99 1021.95 1021.95 1021.97 1022.01 1022.06 1022.11 1022.15 1022.17 1022.17 1022.16 1022.13 1022.09 1022.05 1022.00 1021.94 1021.87 1021.78 1021.67 1021.54 1021.39 1021.21 1021.01 1020.81 1020.60 1020.39
1021.83 1022.09 1022.31 1022.48 1022.59 1022.64 1022.62 1022.56 1022.46 1022.33 1022.21 1022.10 1022.01 1021.96 1021.94 1021.94 1021.97 1022.00 1022.04 1022.07 1022.08 1022.08 1022.06 1022.02 1021.98 1021.92 1021.85 1021.77 1021.68 1021.56 1021.43 1021.27 1021.10 1020.90 1020.69 1020.47 1020.26 1020.06
1021.74 1022.01 1022.23 1022.40 1022.51 1022.56 1022.55 1022.50 1022.41 1022.30 1022.18 1022.08 1021.99 1021.93 1021.90 1021.89 1021.89 1021.91 1021.92 1021.93 1021.93 1021.91 1021.87 1021.83 1021.77 1021.70 1021.62 1021.52 1021.41 1021.28 1021.13 1020.96 1020.77 1020.56 1020.35 1020.14 1019.93 1019.74
1021.48 1021.74 1021.96 1022.12 1022.23 1022.28 1022.28 1022.25 1022.18 1022.10 1022.01 1021.93 1021.86 1021.81 1021.77 1021.75 1021.74 1021.73 1021.72 1021.71 1021.68 1021.65 1021.60 1021.54 1021.47 1021.39 1021.29 1021.19 1021.06 1020.92 1020.76 1020.58 1020.39 1020.19 1019.98 1019.77 1019.57 1019.38
1021.04 1021.27 1021.46 1021.61 1021.71 1021.77 1021.79 1021.78 1021.75 1021.70 1021.65 1021.61 1021.56 1021.53 1021.50 1021.48 1021.47 1021.45 1021.43 1021.40 1021.36 1021.31 1021.25 1021.18 1021.10 1021.01 1020.91 1020.80 1020.67 1020.52 1020.35 1020.17 1019.97 1019.76 1019.55 1019.34 1019.14 1018.95
1020.42 1020.62 1020.78 1020.91 1021.00 1021.07 1021.11 1021.13 1021.14 1021.13 1021.13 1021.12 1021.11 1021.11 1021.10 1021.09 1021.08 1021.06 1021.04 1021.00 1020.96 1020.90 1020.84 1020.77 1020.69 1020.60 1020.50 1020.38 1020.24 1020.08 1019.91 1019.71 1019.50 1019.29 1019.06 1018.84 1018.63 1018.43
1019.69 1019.85 1019.99 1020.10 1020.19 1020.27 1020.33 1020.38 1020.43 1020.47 1020.51 1020.54 1020.57 1020.59 1020.61 1020.62 1020.62 1020.61 1020.59 1020.57 1020.53 1020.48 1020.43 1020.36 1020.29 1020.20 1020.09 1019.96 1019.82 1019.65 1019.46 1019.25 1019.03 1018.79 1018.55 1018.31 1018.07 1017.84
1018.93 1019.08 1019.20 1019.32 1019.42 1019.51 1019.60 1019.68 1019.76 1019.84 1019.91 1019.98 1020.04 1020.08 1020.12 1020.15 1020.17 1020.18 1020.17 1020.16 1020.14 1020.11 1020.06 1020.01 1019.93 1019.84 1019.74 1019.60 1019.44 1019.26 1019.06 1018.83 1018.58 1018.32 1018.05 1017.78 1017.50 1017.23
1018.27 1018.42 1018.56 1018.69 1018.81 1018.93 1019.05 1019.17 1019.28 1019.38 1019.48 1019.57 1019.65 1019.71 1019.76 1019.80 1019.83 1019.85 1019.86 1019.86 1019.85 1019.84 1019.80 1019.76 1019.69 1019.60 1019.48 1019.34 1019.16 1018.96 1018.73 1018.48 1018.21 1017.92 1017.63 1017.32 1017.00 1016.69
Thickness
5703 5702 5701 5700 5700 5699 5699 5698 5694 5690 5687 5688 5688 5687 5687 5687 5686 5688 5687 5686 5688 5690 5691 5693 5694 5695 5697 5698 5700 5701 5703 5704 5705 5706 5707 5708 5709 5709
5700 5700 5699 5699 5698 5697 5697 5697 5697 5694 5689 5687 5685 5685 5684 5685 5683 5683 5683 5683 5684 5685 5686 5687 5689 5690 5691 5692 5693 5694 5696 5697 5697 5699 5700 5700 5701 5702
5701 5699 5697 5697 5696 5696 5696 5696 5695 5694 5688 5686 5686 5684 5683 5683 5681 5681 5681 5682 5681 5680 5681 5683 5684 5684 5685 5686 5687 5688 5689 5690 5691 5692 5693 5693 5694 5694
5699 5698 5696 5694 5694 5694 5693 5694 5693 5692 5689 5684 5684 5683 5681 5680 5679 5678 5679 5679 5678 5677 5677 5678 5678 5679 5680 5680 5680 5681 5682 5683 5684 5684 5685 5685 5686 5686
5697 5696 5695 5694 5692 5691 5691 5691 5690 5689 5687 5685 5682 5680 5679 5677 5676 5676 5676 5675 5676 5674 5673 5673 5673 5673 5674 5674 5674 5675 5675 5676 5676 5677 5677 5677 5678 5678
5695 5693 5693 5692 5691 5690 5688 5688 5687 5686 5684 5683 5681 5679 5676 5675 5674 5673 5673 5672 5673 5671 5670 5669 5668 5668 5668 5668 5668 5668 5668 5668 5668 5669 5669 5669 5670 5670
5692 5690 5688 5686 5684 5685 5685 5685 5684 5683 5682 5680 5678 5676 5675 5672 5671 5671 5670 5670 5669 5667 5667 5666 5666 5665 5664 5662 5661 5661 5660 5660 5661 5661 5661 5661 5661 5661
5689 5687 5685 5683 5680 5678 5677 5677 5678 5679 5679 5677 5676 5674 5672 5670 5667 5667 5666 5666 5664 5663 5661 5661 5660 5659 5657 5656 5654 5653 5653 5652 5652 5652 5652 5652 5652 5652
5688 5686 5683 5681 5679 5679 5675 5673 5672 5671 5670 5673 5673 5670 5668 5667 5664 5663 5662 5660 5657 5657 5655 5655 5654 5651 5649 5647 5646 5645 5644 5644 5644 5643 5643 5642 5642 5642
5684 5683 5681 5680 5677 5677 5676 5675 5673 5671 5668 5668 5667 5665 5663 5660 5659 5657 5656 5655 5654 5651 5649 5648 5647 5645 5643 5641 5638 5637 5636 5635 5634 5633 5633 5632 5632 5632
5681 5679 5678 5676 5671 5669 5671 5671 5669 5666 5662 5659 5658 5656 5654 5652 5651 5652 5651 5650 5649 5648 5644 5641 5641 5639 5638 5636 5633 5630 5628 5627 5625 5624 5623 5622 5621 5621
5677 5675 5670 5670 5666 5665 5667 5667 5665 5664 5661 5658 5655 5652 5651 5649 5646 5646 5646 5644 5643 5642 5639 5634 5633 5631 5631 5631 5627 5624 5622 5620 5618 5616 5614 5612 5610 5610
5675 5673 5670 5664 5662 5660 5660 5661 5659 5657 5656 5654 5653 5651 5648 5646 5643 5640 5638 5636 5635 5633 5630 5626 5625 5623 5621 5621 5620 5617 5615 5613 5611 5609 5606 5603 5600 5598
5672 5670 5666 5660 5657 5655 5654 5652 5650 5648 5650 5649 5647 5645 5643 5640 5637 5634 5631 5628 5625 5624 5620 5617 5615 5612 5611 5611 5611 5609 5606 5603 5601 5599 5596 5593 5590 5587
5666 5662 5659 5655 5652 5650 5647 5645 5644 5644 5644 5642 5641 5639 5636 5633 5629 5625 5623 5620 5617 5615 5611 5608 5605 5603 5600 5599 5599 5598 5595 5593 5589 5586 5584 5582 5579 5577
5658 5654 5650 5648 5646 5644 5643 5641 5640 5639 5638 5636 5634 5631 5628 5624 5621 5618 5616 5613 5611 5609 5604 5599 5595 5592 5590 5587 5585 5585 5583 5580 5578 5574 5571 5569 5566 5563
5655 5651 5648 5646 5644 5642 5640 5638 5635 5633 5630 5628 5626 5624 5621 5617 5614 5610 5606 5604 5602 5600 5597 5592 5587 5582 5578 5575 5574 5573 5571 5569 5565 5561 5558 5557 5555 5551
5647 5647 5645 5642 5640 5638 5636 5633 5630 5627 5624 5621 5618 5615 5612 5609 5606 5602 5597 5595 5592 5590 5587 5582 5577 5573 5571 5569 5562 5560 5558 5555 5552 5548 5544 5543 5544 5540
5641 5641 5640 5637 5635 5633 5630 5627 5625 5622 5618 5614 5610 5607 5604 5600 5597 5594 5590 5586 5583 5580 5576 5571 5565 5561 5559 5560 5558 5546 5542 5540 5536 5534 5532 5529 5529 5528
5636 5635 5634 5631 5628 5625 5623 5620 5617 5613 5609 5605 5602 5598 5594 5591 5588 5585 5581 5576 5572 5568 5564 5559 5554 5549 5545 5543 5542 5538 5528 5524 5522 5520 5518 5516 5514 5511
5631 5629 5627 5624 5621 5617 5614 5611 5608 5604 5600 5596 5593 5589 5585 5581 5578 5574 5570 5565 5558 5556 5552 5548 5543 5534 5529 5526 5525 5526 5521 5512 5507 5503 5501 5499 5499 5499
5625 5622 5619 5615 5612 5608 5605 5601 5598 5594 5590 5587 5583 5579 5575 5571 5567 5562 5558 5554 5549 5544 5539 5535 5529 5523 5517 5514 5512 5512 5509 5504 5498 5492 5487 5483 5480 5483
5615 5612 5609 5605 5601 5597 5594 5590 5587 5584 5580 5576 5572 5568 5563 5558 5554 5549 5544 5540 5535 5531 5526 5522 5517 5511 5506 5501 5498 5497 5494 5491 5487 5484 5481 5475 5469 5466